TimeEST,TemperatureF,Dew PointF,Humidity,Sea Level PressureIn,VisibilityMPH,Wind Direction,Wind SpeedMPH,Gust SpeedMPH,PrecipitationIn,Events,Conditions,WindDirDegrees,DateUTC
12:53 AM,27.0,21.0,78,30.19,6.0,SSW,6.9,-,N/A,,Haze,200,2013-01-08 05:53:00
1:53 AM,27.0,21.0,78,30.19,6.0,SSW,10.4,-,N/A,,Haze,210,2013-01-08 06:53:00
2:53 AM,27.0,21.0,78,30.19,6.0,SSW,10.4,-,N/A,,Haze,200,2013-01-08 07:53:00
3:53 AM,28.0,21.0,75,30.19,6.0,SSW,10.4,-,N/A,,Haze,200,2013-01-08 08:53:00
4:53 AM,28.0,21.0,75,30.19,5.0,SSW,11.5,-,N/A,,Haze,200,2013-01-08 09:53:00
5:53 AM,28.0,21.0,75,30.18,6.0,SSW,10.4,-,N/A,,Haze,200,2013-01-08 10:53:00
6:53 AM,28.0,21.0,75,30.19,5.0,SSW,9.2,-,N/A,,Haze,200,2013-01-08 11:53:00
7:53 AM,27.0,21.0,78,30.21,5.0,South,5.8,-,N/A,,Haze,190,2013-01-08 12:53:00
9:53 AM,30.0,23.0,75,30.24,4.0,South,5.8,-,N/A,,Haze,180,2013-01-08 14:53:00
10:53 AM,33.1,25.0,72,30.26,5.0,South,11.5,-,N/A,,Haze,190,2013-01-08 15:53:00
11:53 AM,34.0,24.1,67,30.24,5.0,SSW,10.4,-,N/A,,Haze,200,2013-01-08 16:53:00
12:53 PM,36.0,25.0,64,30.22,6.0,SSW,5.8,-,N/A,,Haze,210,2013-01-08 17:53:00
1:53 PM,37.9,26.1,62,30.20,6.0,South,6.9,-,N/A,,Haze,170,2013-01-08 18:53:00
2:53 PM,37.9,26.1,62,30.20,7.0,South,9.2,-,N/A,,Clear,190,2013-01-08 19:53:00
3:53 PM,37.0,27.0,67,30.20,6.0,South,5.8,-,N/A,,Haze,170,2013-01-08 20:53:00
4:53 PM,37.0,26.1,65,30.20,7.0,South,6.9,-,N/A,,Clear,170,2013-01-08 21:53:00
5:53 PM,35.1,25.0,67,30.20,7.0,SSE,6.9,-,N/A,,Clear,150,2013-01-08 22:53:00
6:53 PM,34.0,25.0,70,30.20,8.0,SSE,8.1,-,N/A,,Clear,160,2013-01-08 23:53:00
7:53 PM,34.0,25.0,70,30.19,8.0,SSE,11.5,-,N/A,,Clear,160,2013-01-09 00:53:00
8:53 PM,35.1,26.1,70,30.17,8.0,South,11.5,-,N/A,,Clear,170,2013-01-09 01:53:00
9:53 PM,36.0,27.0,70,30.17,8.0,South,10.4,-,N/A,,Clear,180,2013-01-09 02:53:00
10:53 PM,35.1,26.1,70,30.16,8.0,South,12.7,-,N/A,,Clear,190,2013-01-09 03:53:00
11:53 PM,36.0,27.0,70,30.13,9.0,South,12.7,-,N/A,,Partly Cloudy,180,2013-01-09 04:53:00